Погода в Корзунове

Россия / Мурманская область     69°23′57″N   31°00′35″E
темп.,
°C
ветер,
м/с
пор.,
м/с
влажн.,
%
обл.,
%
осадки,
мм/ч
давл.,
гПа
погр.,
м
1 марта, пн
пн100:00+2з132196100 0.3 994595
03:00+1з11198686 0.3 994497
06:00−1з1118870 0.0 992396
09:00−2з1118854 0.0 991424
12:00−1з12198570 0.0 990678
15:00−1з12198052 0.0 989754
18:00−3з10188464 0.0 986412
21:00−4зсз7129470 0.1 988208
2 марта, вт
вт200:00−4сз11187796 0.8 992557
03:00−4сз12187980 1.1 996650
06:00−5сз11187870 0.1 998519
09:00−5сз10177780 0.3 1001578
12:00−5сз10158079 0.1 1003754
15:00−5сз10167877 0.3 1004659
18:00−6сз8148147 0.1 1005278
21:00−8зсз6119160 0.2 1005226
3 марта, ср
ср300:00−7сз6108988 0.8 1005160
03:00−7сз478592 0.8 100695
06:00−9з338862 0.0 100425
09:00−10з339068 0.1 100322
12:00−8з2285100 0.0 100121
15:00−8зюз1284100 0.0 100021
18:00−10зюз1180100 0.0 100021
21:00−10з1180100 0.0 100021
4 марта, чт
чт400:00−9з1194100 0.1 100121
03:00−6ссз5984100 1.1 1001201
06:00−7ссз6118580 0.1 1001216
09:00−6ссз8148784 0.3 1001466
12:00−7в6895100 3.4 1002569
15:00−8в4787100 4.0 1003291
18:00−12св238766 0.0 100521
21:00−12св129680 0.2 100721
5 марта, пт
пт500:00−13з229689 0.1 100820
03:00−13з339594 0.2 100822
06:00−8сз379199 0.8 1008188
09:00−8сз4882100 1.2 1008205
12:00−7сз7987100 0.3 1009475
15:00−7зсз5890100 0.3 1010194
18:00−10сз348798 0.0 101039
21:00−11зсз558388 0.3 101060